GEFSMA_con_cape1000_210.txt.gz
Probability
45 45 45 45 39 35 32 26 26 23 16 16 19 10 13 13 6 16 23 39 45 42 42 42 45 45 48 52 52 52 48 58 58 58 65 68 68 65 61 65 61 61 61
52 45 42 42 45 39 35 29 26 23 23 23 19 16 16 13 13 10 16 32 42 42 42 42 39 39 42 48 48 48 45 48 55 55 55 58 58 58 55 58 58 58 55
42 45 48 39 39 39 35 32 23 26 23 16 16 16 16 19 10 13 13 13 13 35 39 39 39 35 39 35 35 39 35 42 39 39 42 42 39 52 55 52 48 48 45
42 45 42 35 35 32 29 23 23 19 19 13 16 13 16 19 10 16 13 13 16 10 26 32 32 32 32 32 29 29 29 32 32 35 35 39 39 39 48 42 32 39 45
35 32 35 35 29 23 23 19 23 19 16 16 13 13 6 13 16 13 13 13 13 13 13 19 32 32 26 26 26 29 29 29 29 29 29 32 35 35 26 32 29 29 35
32 29 32 32 26 26 23 16 19 19 19 16 10 10 13 16 16 16 16 13 13 16 6 6 10 13 26 26 23 26 26 26 32 29 29 29 29 29 23 23 19 19 23
26 35 26 29 29 19 16 13 13 13 16 16 10 10 13 13 16 13 13 6 3 3 3 6 6 0 3 13 19 26 26 26 29 29 23 29 32 32 19 19 16 16 16
16 16 35 26 29 16 13 13 13 16 13 16 13 13 10 13 10 6 10 10 3 3 0 0 0 0 6 3 3 13 19 19 19 23 23 26 23 23 16 13 10 10 6
19 23 19 23 19 13 13 13 13 13 13 10 13 6 6 6 10 10 10 3 3 3 3 3 0 0 6 6 3 3 10 10 16 19 16 19 16 16 13 13 10 10 6
19 19 16 16 19 13 13 13 13 13 13 10 10 13 10 10 6 3 3 3 3 3 3 3 3 3 3 3 3 0 0 0 3 10 16 13 10 6 6 6 13 13 10
16 13 13 19 19 19 16 16 13 13 6 10 10 10 10 10 6 3 3 3 3 3 3 3 3 6 10 0 10 3 0 0 0 0 6 13 10 6 6 6 6 6 10
19 13 16 16 19 16 16 16 13 10 13 10 10 10 10 6 3 3 3 3 3 3 3 3 6 6 6 3 0 0 0 0 0 0 0 0 6 3 3 3 6 6 6
23 19 10 19 16 16 13 10 13 10 13 3 3 6 6 3 3 3 3 3 3 3 3 3 3 3 3 3 3 0 0 0 0 0 0 0 0 3 3 3 3 6 10
23 16 13 19 10 10 6 13 10 10 3 6 6 6 6 3 3 3 3 3 3 3 3 3 3 3 3 3 0 0 0 0 0 0 0 0 0 0 0 0 0 0 0
13 10 13 13 6 6 0 0 6 3 3 10 6 6 3 3 3 3 3 3 3 3 3 3 0 3 0 0 0 0 0 0 0 0 0 0 0 0 0 0 0 0 0
13 13 6 10 3 0 3 3 6 3 10 10 6 6 0 0 3 3 3 3 3 3 3 3 0 0 0 0 0 0 0 0 0 0 0 0 0 0 0 0 0 0 0
13 10 10 6 0 0 3 3 3 3 6 6 6 0 0 3 0 3 0 0 0 0 0 3 3 0 0 0 0 0 0 0 0 0 0 0 0 0 0 0 0 0 0
6 6 6 0 0 0 0 6 3 6 6 6 3 0 0 0 0 0 0 0 0 0 0 3 0 0 0 0 0 0 0 0 0 0 0 0 0 0 0 0 0 0 0
6 10 10 10 3 0 0 0 6 3 3 6 3 0 0 0 0 0 0 0 0 0 3 0 0 0 0 0 0 0 0 0 0 0 0 0 0 0 0 0 0 0 0
6 6 6 6 6 6 3 3 3 3 6 10 6 3 3 0 0 0 0 3 3 3 0 0 0 0 0 0 0 0 0 0 0 0 0 0 0 0 0 0 0 0 0
0 3 0 6 10 6 3 3 3 0 0 0 0 3 3 3 3 3 0 0 3 0 0 0 0 0 0 0 0 0 0 0 0 0 0 0 0 0 0 0 0 0 0
6 0 3 0 3 0 0 0 0 0 0 0 3 3 0 3 3 0 0 0 3 3 3 0 0 0 0 0 0 0 0 0 0 0 0 0 0 0 0 0 0 0 0
6 6 3 0 0 0 0 0 0 0 0 0 3 3 0 0 0 3 0 0 0 0 3 0 0 0 0 0 0 0 0 0 0 0 0 0 0 0 0 0 0 0 0
3 3 0 0 0 0 0 0 0 0 0 3 3 0 0 0 0 0 3 0 0 0 0 0 0 0 0 0 0 0 0 0 0 0 0 0 0 0 0 0 0 0 0
3 0 0 0 3 0 0 0 0 0 3 3 0 0 0 0 0 0 0 0 0 0 0 0 0 0 0 0 0 0 0 0 0 0 0 0 0 0 3 0 0 0 0
0 0 0 0 3 0 0 0 0 0 0 0 0 0 0 0 0 0 0 0 0 0 0 0 0 0 0 0 0 0 0 0 0 0 0 0 0 0 0 0 0 0 0

GEFSMA_con_cape1000_216.txt.gz
Probability
10 13 10 6 6 10 19 19 16 16 16 13 10 10 6 6 6 6 3 6 29 42 39 35 35 42 42 42 45 45 48 48 52 52 55 58 65 61 61 61 68 65 68
13 6 6 6 6 6 6 6 6 10 3 0 3 3 6 6 6 6 3 6 23 26 32 32 35 35 39 42 45 45 42 42 45 48 48 52 52 55 58 58 61 61 55
6 6 6 6 6 3 3 3 0 0 0 0 0 0 6 6 6 6 3 3 6 16 23 26 32 29 29 32 35 39 42 45 39 39 42 39 42 39 45 55 48 48 52
3 6 3 6 3 3 3 0 0 0 0 0 0 0 6 3 3 6 0 0 3 3 10 23 23 32 29 29 32 32 35 35 35 39 32 32 35 42 39 39 42 39 39
6 3 0 3 3 3 3 0 0 0 0 0 0 0 0 3 0 0 0 0 3 3 3 6 16 23 32 29 32 32 35 35 39 39 32 32 29 39 32 32 35 32 32
3 0 0 0 3 0 0 0 0 0 0 0 0 0 0 3 0 0 3 3 3 3 3 3 3 10 16 26 26 32 26 29 29 29 29 26 29 29 26 23 26 23 23
3 0 3 0 3 0 0 0 0 0 0 0 0 0 0 0 0 3 0 0 0 0 0 0 3 3 3 16 29 26 29 23 26 26 26 26 26 23 19 19 19 16 19
3 3 0 0 3 3 0 0 0 0 0 0 0 0 0 0 0 0 0 0 0 0 0 0 0 0 0 0 0 19 26 26 26 23 23 23 19 19 23 23 19 19 16
3 0 0 3 0 0 0 0 0 3 3 0 0 0 0 0 0 0 0 0 0 0 0 0 0 0 0 0 0 6 16 16 23 23 23 19 13 16 19 23 19 16 16
3 3 3 3 3 0 0 0 0 0 0 0 0 0 0 0 0 0 0 0 0 0 0 0 0 0 0 0 0 0 3 6 10 16 19 19 13 13 13 19 19 19 16
3 3 3 3 3 0 0 0 0 0 0 0 0 0 0 0 0 0 0 0 0 0 0 0 0 0 0 0 0 0 0 0 6 6 6 16 13 13 13 13 10 16 19
3 3 3 3 3 3 3 3 0 0 0 0 0 0 0 0 0 0 0 0 0 0 0 0 0 0 0 0 0 0 0 0 0 0 3 3 6 6 6 6 6 6 10
3 3 3 3 3 3 0 0 0 3 0 0 0 0 0 0 0 0 0 0 0 0 0 0 0 0 0 0 0 0 0 0 0 0 0 0 0 3 6 6 6 6 3
3 3 3 3 3 3 0 0 0 0 0 0 0 0 0 0 0 0 0 0 0 0 0 0 0 0 0 0 0 0 0 0 0 0 0 0 0 0 0 0 0 0 0
0 3 3 3 3 0 0 0 0 0 0 0 0 0 0 0 0 0 0 0 0 0 0 0 0 0 0 0 0 0 0 0 0 0 0 0 0 0 0 0 0 0 0
0 0 3 0 0 0 0 0 0 0 0 0 0 0 0 0 0 0 0 0 0 0 0 0 0 0 0 0 0 0 0 0 0 0 0 0 0 0 0 0 0 0 0
0 0 0 0 0 0 0 0 0 0 0 0 0 0 0 0 0 0 0 0 0 0 0 0 0 0 0 0 0 0 0 0 0 0 0 0 0 0 0 0 0 0 0
0 0 0 0 0 0 0 0 0 0 0 0 0 0 0 0 0 0 0 0 0 0 0 0 0 0 0 0 0 0 0 0 0 0 0 0 0 0 0 0 0 0 0
0 0 0 0 0 0 0 0 0 0 0 0 0 0 0 0 0 0 0 0 0 0 0 0 0 0 0 0 0 0 0 0 0 0 0 0 0 0 0 0 0 0 0
0 0 0 0 0 0 0 0 0 0 0 0 0 0 0 0 0 0 0 0 0 0 0 0 0 0 0 0 0 0 0 0 0 0 0 0 0 0 0 0 0 0 0
0 0 0 0 0 0 0 0 0 0 0 0 0 0 0 0 0 0 0 0 0 0 0 0 0 0 0 0 0 0 0 0 0 0 0 0 0 0 0 0 0 0 0
0 0 0 0 0 0 0 0 0 0 0 0 0 0 0 0 0 0 0 0 0 0 0 0 0 0 0 0 0 0 0 0 0 0 0 0 0 0 0 0 0 0 0
0 0 0 0 0 0 0 0 0 0 0 0 0 0 0 0 0 0 0 0 0 0 0 0 0 0 0 0 0 0 0 0 0 0 0 0 0 0 0 0 0 0 0
0 0 0 0 0 0 0 0 0 0 0 0 0 0 0 0 0 0 0 0 0 0 0 0 0 0 0 0 0 0 0 0 0 0 0 0 0 0 0 0 0 0 0
0 0 0 0 0 0 0 0 0 0 0 0 0 0 0 0 0 0 0 0 0 0 0 0 0 0 0 0 0 0 0 0 0 0 0 0 0 0 0 0 0 0 0
0 0 0 0 0 0 0 0 0 0 0 0 0 0 0 0 0 0 0 0 0 0 0 0 0 0 0 0 0 0 0 0 0 0 0 0 0 0 0 0 0 0 0

GEFSMA_con_cape1000_222.txt.gz
Probability
10 10 10 10 10 13 19 19 19 19 10 16 16 16 16 13 6 6 6 16 23 29 29 29 32 39 39 39 35 39 39 39 39 39 42 42 45 55 48 52 55 55 65
6 10 6 6 10 10 6 13 16 16 13 10 10 13 13 10 10 6 3 6 16 26 26 29 29 32 35 35 35 35 39 35 39 35 35 42 42 42 48 45 52 52 58
6 6 6 6 6 6 6 6 6 6 10 6 6 6 6 6 6 6 3 3 3 10 19 26 26 23 29 32 32 32 35 35 39 32 35 39 42 42 42 52 48 45 45
6 6 6 3 3 3 6 6 6 6 3 3 3 3 0 0 0 0 3 3 3 3 10 16 16 23 26 26 29 29 29 35 35 35 35 42 42 42 42 42 42 39 39
10 6 3 0 3 3 0 0 3 3 3 3 0 0 0 0 0 0 0 3 3 3 3 3 13 19 23 23 26 26 26 32 32 39 39 39 42 42 39 39 35 35 35
6 0 0 0 0 0 0 0 0 0 3 0 0 0 0 0 0 0 0 0 3 3 3 3 3 6 16 19 19 23 23 32 32 32 35 35 39 35 26 29 23 26 26
0 0 0 0 0 0 0 0 0 0 0 0 0 0 0 0 0 0 3 3 3 3 3 3 3 3 6 16 16 23 26 26 26 29 32 35 39 32 29 23 26 19 23
0 0 0 0 0 0 0 3 0 0 0 0 0 0 0 0 0 0 0 0 3 3 3 3 3 3 3 3 3 6 16 16 26 26 26 26 29 29 26 19 19 19 16
3 3 0 0 0 0 3 3 0 0 0 0 0 0 0 0 0 0 0 0 0 0 0 0 0 0 3 3 3 3 6 6 10 16 23 26 26 19 23 19 16 16 13
0 0 0 0 0 0 0 0 0 0 0 0 0 0 0 0 0 0 0 0 0 0 0 0 0 0 0 0 0 3 3 3 6 16 19 23 19 19 23 19 16 19 16
0 0 0 0 0 0 0 0 0 0 0 0 0 0 0 0 0 0 0 0 0 0 0 0 0 0 0 0 0 0 0 0 0 3 6 10 10 10 16 13 13 19 19
0 0 0 0 0 0 0 0 0 0 0 0 0 0 0 0 0 0 0 0 0 0 0 0 0 0 0 0 0 0 0 0 0 0 3 6 6 6 6 10 13 13 16
0 0 0 0 0 0 0 0 0 0 0 0 0 0 0 0 0 0 0 0 0 0 0 0 0 0 0 0 0 0 0 0 0 0 0 0 0 6 6 6 10 10 10
0 0 0 0 0 0 0 0 0 0 0 0 0 0 0 0 0 0 0 0 0 0 0 0 0 0 0 0 0 0 0 0 0 0 0 0 0 0 0 0 3 3 3
0 0 0 0 0 0 0 0 0 0 0 0 0 0 0 0 0 0 0 0 0 0 0 0 0 0 0 0 0 0 0 0 0 0 0 0 0 0 0 0 0 0 0
0 0 0 0 0 0 0 0 0 0 0 0 0 0 0 0 0 0 0 0 0 0 0 0 0 0 0 0 0 0 0 0 0 0 0 0 0 0 0 0 0 0 0
0 0 0 0 0 0 0 0 0 0 0 0 0 0 0 0 0 0 0 0 0 0 0 0 0 0 0 0 0 0 0 0 0 0 0 0 0 0 0 0 0 0 0
0 0 0 0 0 0 0 0 0 0 0 0 0 0 0 0 0 0 0 0 0 0 0 0 0 0 0 0 0 0 0 0 0 0 0 0 0 0 0 0 0 0 0
0 0 0 0 0 0 0 0 0 0 0 0 0 0 0 0 0 0 0 0 0 0 0 0 0 0 0 0 0 0 0 0 0 0 0 0 0 0 0 0 0 0 0
0 0 0 0 0 0 0 0 0 0 0 0 0 0 0 0 0 0 0 0 0 0 0 0 0 0 0 0 0 0 0 0 0 0 0 0 0 0 0 0 0 0 0
0 0 0 0 0 0 0 0 0 0 0 0 0 0 0 0 0 0 0 0 0 0 0 0 0 0 0 0 0 0 0 0 0 0 0 0 0 0 0 0 0 0 0
0 0 0 0 0 0 0 0 0 0 0 0 0 0 0 0 0 0 0 0 0 0 0 0 0 0 0 0 0 0 0 0 0 0 0 0 0 0 0 0 0 0 0
0 0 0 0 0 0 0 0 0 0 0 0 0 0 0 0 0 0 0 0 0 0 0 0 0 0 0 0 0 0 0 0 0 0 0 0 0 0 0 0 0 0 0
0 0 0 0 0 0 0 0 0 0 0 0 0 0 0 0 0 0 0 0 0 0 0 0 0 0 0 0 0 0 0 0 0 0 0 0 0 0 0 0 0 0 0
0 0 0 0 0 0 0 0 0 0 0 0 0 0 0 0 0 0 0 0 0 0 0 0 0 0 0 0 0 0 0 0 0 0 0 0 0 0 0 0 0 0 0
0 0 0 0 0 0 0 0 0 0 0 0 0 0 0 0 0 0 0 0 0 0 0 0 0 0 0 0 0 0 0 0 0 0 0 0 0 0 0 0 0 0 0

GEFSMA_con_cape1000_228.txt.gz
Probability
16 16 19 23 13 13 19 19 16 16 19 19 19 16 19 23 23 19 16 19 29 29 29 26 26 32 29 35 32 32 29 35 35 42 48 39 42 42 48 45 52 52 52
16 13 16 19 19 13 13 13 13 19 19 16 13 13 13 16 23 23 16 16 29 29 23 26 26 26 35 29 29 29 26 26 35 42 42 35 32 29 42 39 42 48 52
16 13 16 19 19 19 16 13 13 13 13 16 13 13 13 16 13 19 23 23 23 16 23 16 23 23 19 23 29 29 26 26 26 32 35 35 35 32 32 26 32 39 45
16 16 16 19 19 23 16 16 13 10 10 13 10 19 16 26 16 19 13 13 23 10 10 16 16 19 19 23 23 23 32 29 32 32 39 39 32 32 32 29 32 32 42
13 13 13 13 16 16 19 16 13 13 6 6 10 19 26 19 26 19 19 10 6 16 10 10 13 16 13 19 19 23 23 26 29 29 32 32 32 29 29 29 32 32 42
16 13 13 6 10 16 16 19 16 19 16 19 3 6 16 16 16 16 16 6 13 6 6 6 6 10 10 16 19 23 23 23 29 26 26 29 29 32 26 26 29 29 29
13 16 6 10 10 16 13 6 10 6 10 23 19 13 6 10 13 19 16 10 6 6 6 6 6 6 10 6 10 23 23 23 23 23 26 23 26 26 29 32 26 26 23
16 10 10 10 10 19 10 3 13 13 10 13 13 10 6 6 16 3 10 6 6 3 3 0 0 10 6 13 6 16 23 23 23 19 26 23 26 26 32 32 32 26 23
13 13 13 10 10 3 10 10 10 10 10 10 10 10 10 10 3 6 3 6 6 3 3 0 3 3 6 13 6 6 10 13 13 19 23 16 19 19 26 32 32 29 23
13 10 10 10 10 3 3 6 6 10 10 6 10 13 13 10 13 10 10 6 6 10 0 0 6 6 6 6 10 3 3 3 6 13 16 16 10 10 19 26 29 29 29
13 6 6 10 10 13 10 6 6 6 13 13 13 13 13 13 10 3 3 3 10 10 6 6 13 6 6 6 13 6 3 3 3 3 3 3 3 10 13 19 23 29 26
16 6 6 10 10 3 10 6 6 6 10 10 10 13 13 10 6 6 3 6 6 3 3 10 10 6 6 6 3 3 3 0 0 0 3 3 3 6 3 6 13 13 16
16 13 0 3 6 6 6 6 10 6 6 10 6 6 6 6 3 10 6 6 6 3 6 6 3 6 3 3 6 0 0 0 0 0 0 0 3 3 6 3 13 13 13
13 6 3 6 6 6 3 3 6 3 6 6 3 6 6 6 10 6 6 10 6 6 10 0 3 6 3 0 0 0 0 0 0 0 0 0 0 0 3 3 3 3 6
6 6 3 6 3 3 3 3 6 3 3 6 6 6 6 6 6 6 10 6 10 0 3 3 3 0 3 6 0 3 6 0 0 0 0 0 0 0 0 0 0 0 0
6 6 6 6 3 3 3 3 3 3 3 3 3 3 3 10 6 6 13 10 10 6 0 0 0 0 3 0 0 3 6 0 0 0 0 0 0 0 0 0 0 0 0
6 6 6 6 3 3 3 3 3 3 3 3 3 3 3 3 6 6 10 10 6 6 6 0 0 3 10 6 3 3 3 0 0 0 0 0 0 0 0 0 0 0 0
3 3 3 3 0 0 0 3 0 3 3 3 3 3 3 3 3 6 10 10 6 6 3 0 0 3 3 6 6 3 0 0 3 0 0 0 0 0 0 0 0 0 0
3 3 3 3 0 0 0 0 0 0 0 3 3 3 3 3 3 6 6 6 6 3 3 3 0 0 0 3 3 0 0 0 0 0 0 0 0 0 0 0 0 0 0
0 0 3 0 0 0 0 0 0 0 0 0 3 3 3 3 3 6 3 6 3 3 3 3 0 3 3 3 3 0 0 3 0 0 0 0 0 0 0 0 0 0 0
0 0 0 0 0 0 0 0 0 0 0 3 0 0 0 3 0 0 3 6 3 3 3 3 3 3 3 3 3 3 0 0 3 0 3 0 0 0 0 0 0 0 0
0 0 0 0 0 0 0 0 0 3 3 0 0 0 0 0 0 0 0 0 0 3 3 3 3 3 3 3 3 3 0 0 0 0 3 0 0 3 0 0 0 0 0
3 0 0 0 0 0 0 0 0 3 3 0 0 0 0 0 0 0 0 0 0 0 0 3 3 3 3 3 3 3 3 3 0 0 3 3 3 0 0 0 0 0 0
0 0 0 0 0 0 0 0 0 0 0 0 0 3 0 0 0 0 0 0 0 0 0 0 3 3 3 3 3 3 3 0 0 0 3 3 0 0 0 0 0 0 0
0 0 0 0 0 0 0 0 0 0 0 0 0 0 0 0 0 0 0 0 0 0 0 0 0 0 0 0 0 3 3 0 0 6 6 3 0 0 3 3 0 0 0
0 0 0 0 0 0 0 0 0 0 0 0 0 0 0 0 0 0 0 0 0 0 0 0 0 0 0 0 0 0 6 0 0 0 3 6 0 0 0 0 0 0 0

GEFSMA_con_cape1000_234.txt.gz
Probability
32 29 26 32 26 26 26 32 26 19 19 23 16 16 19 16 16 13 16 42 45 42 32 32 32 29 39 42 52 55 55 52 45 48 45 42 42 42 48 48 48 48 48
32 32 35 35 26 29 19 26 29 23 23 19 19 23 26 16 16 16 16 29 42 45 42 32 32 32 35 32 45 48 42 35 45 45 35 35 42 42 42 42 48 45 48
29 32 35 29 23 32 26 23 23 26 26 23 26 26 19 19 13 19 13 13 23 32 39 32 32 29 29 29 35 32 29 32 35 39 35 32 35 39 42 35 39 39 52
35 39 29 29 26 29 23 26 29 19 19 23 23 23 23 23 19 23 10 10 13 10 23 29 32 26 23 23 26 26 23 23 26 39 32 32 35 35 29 32 29 29 32
29 35 32 29 26 26 26 19 23 26 19 19 19 26 26 23 23 13 13 13 13 16 13 23 23 26 23 23 26 29 29 26 26 35 32 32 29 32 29 32 26 26 26
23 32 32 29 29 23 35 29 19 19 23 19 0 0 16 23 23 16 13 13 16 16 13 6 13 13 19 23 19 23 26 23 23 23 26 26 26 26 29 29 23 19 19
19 26 23 26 32 26 16 19 13 13 10 19 10 10 10 13 19 16 10 10 10 13 13 13 10 6 6 13 16 23 23 23 23 23 19 23 29 26 26 23 19 19 19
23 13 26 16 16 26 23 19 13 10 6 6 16 6 6 6 6 3 3 6 3 3 10 6 6 6 6 3 3 16 19 26 26 23 26 26 26 26 23 23 19 19 16
23 19 16 13 16 16 16 19 13 13 6 13 19 3 3 3 0 3 3 0 3 3 3 6 3 6 3 3 6 3 16 13 16 23 26 26 19 16 23 26 19 19 23
13 10 13 13 13 16 13 19 19 19 16 16 16 19 16 10 0 0 3 3 0 3 3 3 0 3 3 3 3 3 3 3 10 16 26 26 23 19 19 26 23 19 19
6 6 6 13 10 13 19 16 19 19 19 23 16 16 16 6 3 0 0 0 3 6 6 6 3 3 3 3 6 0 0 0 0 10 13 19 19 19 19 26 26 23 23
13 6 10 16 16 13 10 19 19 23 23 16 13 16 13 6 3 0 0 0 0 3 6 6 3 0 3 3 0 0 0 0 0 0 3 10 16 19 16 16 19 23 26
6 10 6 13 16 16 13 16 19 16 16 16 13 13 13 6 6 0 0 0 0 3 3 6 6 6 0 0 0 0 0 0 0 0 0 3 3 3 6 10 13 13 16
10 10 19 16 10 6 3 13 13 16 16 13 10 16 13 13 6 3 3 0 0 3 3 3 6 6 3 0 0 0 0 0 0 0 0 0 0 3 3 3 3 3 3
3 10 10 6 3 6 6 6 3 6 6 6 6 10 13 6 10 3 6 6 0 0 3 3 6 6 3 3 3 0 3 0 0 0 0 0 0 0 0 3 3 3 3
16 6 6 0 0 3 6 6 6 6 6 6 10 10 13 3 3 3 6 3 3 3 3 3 3 6 3 3 3 6 6 0 0 0 0 0 0 0 0 0 0 0 0
6 10 0 0 3 3 3 3 6 6 6 6 6 6 10 3 3 6 3 3 3 3 3 3 0 3 6 6 0 6 3 3 0 0 0 0 0 0 0 0 0 0 0
3 3 0 0 0 0 3 6 0 3 0 3 3 0 6 0 0 3 0 0 0 0 0 0 0 0 0 3 3 6 3 3 3 0 0 0 0 0 0 0 0 0 0
0 0 3 0 0 0 0 3 6 3 0 3 3 0 0 0 3 0 0 0 0 0 0 0 0 0 0 0 0 3 0 0 0 0 0 0 0 0 0 0 0 0 0
0 0 3 0 0 0 0 0 3 3 0 0 0 0 0 0 0 0 0 0 0 0 0 0 0 0 0 0 0 0 0 0 0 0 0 0 0 0 0 0 0 0 0
0 6 3 0 0 0 0 0 3 0 0 0 0 0 0 0 0 0 0 0 0 0 0 0 0 0 0 0 0 0 0 0 0 0 0 0 0 0 0 0 0 0 0
13 6 6 3 3 0 0 0 0 0 0 0 0 0 0 0 0 0 0 0 0 0 0 0 0 0 0 0 0 0 0 0 0 0 0 0 0 0 0 0 0 0 0
16 13 10 3 3 0 0 0 0 0 0 0 0 0 0 0 0 0 0 0 0 0 0 0 0 0 0 0 0 0 0 0 0 0 0 0 0 0 0 0 0 0 0
16 16 10 6 3 0 0 0 0 0 0 0 0 6 3 0 0 0 0 0 0 0 0 0 0 3 0 3 3 0 0 0 0 0 0 0 0 0 0 0 0 0 0
19 13 6 6 0 0 0 0 0 0 0 0 0 0 0 3 0 0 0 0 0 3 0 0 0 0 0 0 0 0 0 0 0 0 0 0 0 0 0 0 0 0 0
19 13 3 6 0 0 0 0 0 0 0 0 0 0 0 0 0 0 0 0 3 3 0 0 0 0 0 0 0 0 0 0 0 0 0 0 0 0 0 0 0 0 0

GEFSMA_con_cape1000_240.txt.gz
Probability
10 3 6 10 10 6 10 3 3 6 6 6 6 6 3 0 3 3 6 23 42 35 39 35 35 39 42 45 45 52 45 48 52 48 48 52 48 52 55 58 65 65 68
6 3 6 6 6 3 3 3 3 3 3 3 0 0 0 0 0 0 6 10 39 42 42 35 35 35 35 39 42 39 48 55 48 48 52 45 48 45 48 48 48 52 58
6 3 6 6 6 3 3 3 3 3 3 0 0 0 0 0 0 0 0 3 10 26 35 39 39 35 26 29 29 26 29 35 45 45 45 48 45 42 45 48 48 39 35
3 6 6 3 3 3 3 3 3 3 3 0 0 0 0 0 0 0 0 0 0 6 16 26 29 29 23 19 16 16 23 26 35 35 42 39 39 42 39 39 42 39 26
0 3 6 3 3 3 3 3 3 3 3 3 0 0 0 0 0 0 0 0 0 3 3 10 19 19 16 13 16 19 23 26 29 26 39 39 29 29 32 32 32 29 26
3 3 0 3 3 3 3 3 0 0 0 0 0 0 0 0 0 0 0 0 0 0 0 0 3 6 16 19 16 19 13 16 23 32 32 32 32 29 26 26 29 23 26
3 3 0 0 3 3 3 0 0 0 0 0 0 0 0 0 0 0 0 0 0 0 0 0 0 0 3 13 16 16 19 13 23 35 32 23 26 26 19 26 23 19 19
3 3 0 0 0 0 0 0 0 0 0 0 0 0 0 0 0 0 0 0 0 0 0 0 0 0 0 0 3 13 23 19 26 29 32 26 23 23 19 16 19 19 13
3 3 0 0 0 0 0 0 0 0 0 0 0 0 0 0 0 0 0 0 0 0 0 0 0 0 0 0 0 3 13 13 23 29 32 26 23 16 16 16 16 16 19
3 3 0 0 0 0 0 0 0 0 0 0 0 0 0 0 0 0 0 0 0 0 0 0 0 0 0 0 0 3 6 3 6 23 26 23 23 19 19 16 16 23 23
3 3 0 0 0 0 0 0 0 0 0 0 0 0 0 0 0 0 0 0 0 0 0 0 0 0 0 0 0 0 0 3 3 3 13 16 16 19 19 19 16 19 19
0 0 0 0 0 0 0 0 0 0 0 0 0 0 0 0 0 0 0 0 0 0 0 0 0 0 0 0 0 0 0 0 0 0 3 6 13 16 13 13 19 16 16
0 0 0 0 0 0 0 0 0 0 0 0 0 0 0 0 0 0 0 0 0 0 0 0 0 0 0 0 0 0 0 0 0 0 0 0 6 10 10 10 10 13 10
0 0 0 0 0 0 0 0 0 0 0 0 0 0 0 0 0 0 0 0 0 0 0 0 0 0 0 0 0 0 0 0 0 0 0 0 0 0 6 6 10 10 10
0 0 0 0 0 0 0 0 0 0 0 0 0 0 0 0 0 0 0 0 0 0 0 0 0 0 0 0 0 0 0 0 0 0 0 0 0 0 0 0 3 3 3
0 0 0 0 0 0 0 0 0 0 0 0 0 0 0 0 0 0 0 0 0 0 0 0 0 0 0 0 0 0 0 0 0 0 0 0 0 0 0 0 0 0 0
0 0 0 0 0 0 0 0 0 0 0 0 0 0 0 0 0 0 0 0 0 0 0 0 0 0 0 0 0 0 0 0 0 0 0 0 0 0 0 0 0 0 0
0 0 0 0 0 0 0 0 0 0 0 0 0 0 0 0 0 0 0 0 0 0 0 0 0 0 0 0 0 0 0 0 0 0 0 0 0 0 0 0 0 0 0
0 0 0 0 0 0 0 0 0 0 0 0 0 0 0 0 0 0 0 0 0 0 0 0 0 0 0 0 0 0 0 0 0 0 0 0 0 0 0 0 0 0 0
0 0 0 0 0 0 0 0 0 0 0 0 0 0 0 0 0 0 0 0 0 0 0 0 0 0 0 0 0 0 0 0 0 0 0 0 0 0 0 0 0 0 0
0 0 0 0 0 0 0 0 0 0 0 0 0 0 0 0 0 0 0 0 0 0 0 0 0 0 0 0 0 0 0 0 0 0 0 0 0 0 0 0 0 0 0
0 0 0 0 0 0 0 0 0 0 0 0 0 0 0 0 0 0 0 0 0 0 0 0 0 0 0 0 0 0 0 0 0 0 0 0 0 0 0 0 0 0 0
0 0 0 0 0 0 0 0 0 0 0 0 0 0 0 0 0 0 0 0 0 0 0 0 0 0 0 0 0 0 0 0 0 0 0 0 0 0 0 0 0 0 0
0 0 0 0 0 0 0 0 0 0 0 0 0 0 0 0 0 0 0 0 0 0 0 0 0 0 0 0 0 0 0 0 0 0 0 0 0 0 0 0 0 0 0
0 0 0 0 0 0 0 0 0 0 0 0 0 0 0 0 0 0 0 0 0 0 0 0 0 0 0 0 0 0 0 0 0 0 0 0 0 0 0 0 0 0 0
0 0 0 0 0 0 0 0 0 0 0 0 0 0 0 0 0 0 0 0 0 0 0 0 0 0 0 0 0 0 0 0 0 0 0 0 0 0 0 0 0 0 0

GEFSMA_con_cape1000_246.txt.gz
Probability
13 13 16 10 10 10 10 10 10 10 10 13 13 13 6 6 3 3 10 19 29 32 29 32 35 35 39 39 39 48 48 52 48 55 52 48 55 48 48 52 52 52 52
6 6 10 10 10 10 10 10 6 6 3 6 6 6 6 6 3 3 3 6 26 29 32 32 32 32 39 32 32 35 39 39 45 48 52 48 52 48 45 48 52 52 48
6 6 6 6 10 10 3 3 3 3 3 3 3 6 6 3 3 3 0 3 10 23 29 29 29 29 29 32 32 29 35 39 35 39 39 42 42 42 32 35 45 48 42
6 3 3 3 6 3 3 3 3 3 3 3 3 3 3 3 3 3 3 3 3 6 13 29 32 26 26 26 23 26 29 39 35 29 29 35 35 35 29 32 32 32 35
3 3 3 3 3 0 0 3 3 3 3 3 3 0 0 0 0 0 3 3 3 3 6 10 23 26 19 19 13 23 23 23 23 26 26 29 32 32 35 32 32 29 35
6 3 3 3 3 0 0 0 3 0 0 0 0 0 0 0 0 3 3 3 3 3 3 6 6 10 16 16 16 16 13 16 16 23 26 26 35 35 29 32 29 29 26
3 3 3 3 3 3 0 0 0 0 0 0 0 0 0 0 0 0 3 0 3 0 3 6 6 6 3 13 13 13 13 13 16 16 16 26 35 29 26 29 29 29 19
3 3 0 3 3 3 0 0 0 0 0 0 0 0 0 0 0 0 0 0 0 0 0 0 3 3 0 0 0 6 13 16 19 19 13 16 23 26 29 23 19 29 19
3 3 3 3 3 3 3 0 0 0 0 0 0 0 0 0 0 0 0 0 0 0 0 0 0 0 0 0 0 0 3 6 16 16 16 19 19 19 26 23 19 19 19
3 3 3 0 3 3 3 0 0 0 0 0 0 0 0 0 0 0 0 0 0 0 0 0 0 0 0 0 0 0 0 0 3 10 13 19 19 16 16 19 23 19 16
3 3 3 3 3 3 3 0 0 0 0 0 0 0 0 0 0 0 0 0 0 0 0 0 0 0 0 0 0 0 0 0 0 0 3 13 13 13 19 23 19 16 16
3 3 3 3 3 3 0 0 0 0 0 0 0 0 0 0 0 0 0 0 0 0 0 0 0 0 0 0 0 0 0 0 0 0 0 3 10 6 13 16 16 16 16
0 3 3 3 3 0 0 0 0 0 0 0 0 0 0 0 0 0 0 0 0 0 0 0 0 0 0 0 0 0 0 0 0 0 0 0 0 6 13 13 6 10 13
0 3 3 3 0 0 0 0 0 0 0 0 0 0 0 0 0 0 0 0 0 0 0 0 0 0 0 0 0 0 0 0 0 0 0 0 0 0 3 3 6 6 6
0 3 3 3 0 0 0 0 0 0 0 0 0 0 0 0 0 0 0 0 0 0 0 0 0 0 0 0 3 3 3 0 0 0 0 0 0 0 3 3 3 0 0
0 3 3 3 0 0 0 0 0 0 0 0 0 0 0 0 0 0 0 0 0 0 0 0 0 0 0 0 0 3 3 0 0 0 0 0 0 0 0 0 0 0 0
0 0 0 0 0 0 0 0 0 0 0 0 0 0 0 0 0 0 0 0 0 0 0 0 0 0 0 0 0 0 0 0 0 0 0 0 0 0 0 0 0 0 0
0 0 0 0 0 0 0 0 0 0 0 0 0 0 0 0 0 0 0 0 0 0 0 0 0 0 0 0 0 0 0 0 0 0 0 0 0 0 0 0 0 0 0
0 0 0 0 0 0 0 0 0 0 0 0 0 0 0 0 0 0 0 0 0 0 0 0 0 0 0 0 0 0 0 0 0 0 0 0 0 0 0 0 0 0 0
0 0 0 0 0 0 0 0 0 0 0 0 0 0 0 0 0 0 0 0 0 0 0 0 0 0 0 0 0 0 0 0 0 0 0 0 0 0 0 0 0 0 0
0 0 0 0 0 0 0 0 0 0 0 0 0 0 0 0 0 0 0 0 0 0 0 0 0 0 0 0 0 0 0 0 0 0 0 0 0 0 0 0 0 0 0
0 0 0 0 0 0 0 0 0 0 0 0 0 0 0 0 0 0 0 0 0 0 0 0 0 0 0 0 0 0 0 0 0 0 0 0 0 0 0 0 0 0 0
0 0 0 0 0 0 0 0 0 0 0 0 0 0 0 0 0 0 0 0 0 0 0 0 0 0 0 0 0 0 0 0 0 0 0 0 0 0 0 0 0 0 0
0 0 0 0 0 0 0 0 0 0 0 0 0 0 0 0 0 0 0 0 0 0 0 0 0 0 0 0 0 0 0 0 0 0 0 0 0 0 0 0 0 0 0
0 0 0 0 0 0 0 0 0 0 0 0 0 0 0 0 0 0 0 0 0 0 0 0 0 0 0 0 0 0 0 0 0 0 0 0 0 0 0 0 0 0 0
0 0 0 0 0 0 0 0 0 0 0 0 0 0 0 0 0 0 0 0 0 0 0 0 0 0 0 0 0 0 0 0 0 0 0 0 0 0 0 0 0 0 0

GEFSMA_con_cape1000_252.txt.gz
Probability
26 29 39 39 35 29 32 26 26 23 16 16 16 16 19 19 19 19 23 19 29 26 26 26 29 32 35 39 39 39 39 48 52 52 58 55 55 55 52 55 55 52 48
32 29 26 35 35 32 23 23 23 23 23 16 13 13 13 13 19 13 13 19 23 26 23 23 26 29 29 26 35 35 29 35 35 48 52 52 48 52 45 42 52 52 45
29 26 26 26 32 26 32 23 19 23 19 16 10 10 6 13 10 10 10 16 16 19 19 23 19 23 26 26 23 26 29 26 32 32 42 42 45 42 48 42 42 39 29
26 29 19 16 19 19 19 26 23 23 19 13 10 10 6 16 10 10 6 10 16 13 13 19 23 23 26 26 23 23 23 29 29 29 26 29 32 35 39 39 39 42 29
26 23 23 29 23 23 23 16 19 19 16 13 3 6 6 3 3 0 3 6 13 13 16 23 23 23 19 16 19 16 16 23 26 23 23 26 29 29 32 32 35 32 29
23 23 23 23 23 23 23 23 19 16 16 16 3 3 3 3 3 3 0 0 13 16 16 13 19 19 13 16 13 16 16 19 23 23 23 29 29 29 29 26 29 26 26
19 23 23 26 23 19 23 23 19 16 13 13 13 6 6 6 6 6 3 3 6 10 13 16 16 19 16 6 10 13 13 19 19 19 19 29 26 23 29 29 26 19 19
23 6 19 23 19 23 23 23 16 13 13 13 6 16 10 6 6 3 6 13 10 16 10 13 16 23 10 10 3 10 13 13 13 16 26 26 23 19 23 23 26 19 16
6 13 10 10 19 19 19 23 16 13 10 13 10 10 10 3 3 6 3 6 6 6 10 10 13 13 13 10 13 10 6 6 6 10 19 23 16 16 19 23 26 16 16
3 6 10 10 16 19 23 13 13 16 13 10 10 13 10 6 0 3 3 3 3 6 3 0 0 6 13 13 13 3 0 0 3 10 13 13 13 16 13 16 16 19 16
3 3 6 16 16 19 19 13 19 19 16 6 10 13 10 13 6 6 3 0 3 6 3 3 3 3 3 6 10 6 0 0 0 0 3 6 13 13 10 6 13 16 23
6 3 6 13 10 16 19 23 19 16 13 16 19 16 10 10 10 3 3 6 6 3 3 6 3 6 10 3 6 0 0 0 0 0 0 0 10 13 6 3 3 6 3
10 10 6 10 13 16 16 16 19 16 16 13 10 13 13 13 6 10 6 3 6 3 6 6 6 6 3 3 6 0 0 0 0 0 0 0 0 3 3 0 3 6 3
3 6 10 13 16 13 10 13 13 6 13 10 0 6 10 10 13 10 3 3 3 3 3 0 3 3 3 3 3 0 0 0 0 0 0 0 0 0 3 0 0 0 0
3 6 6 10 13 13 16 13 10 10 10 6 3 6 10 10 10 3 0 3 3 3 0 0 0 3 6 6 0 0 6 0 0 0 0 0 0 0 0 0 0 0 0
6 3 6 6 6 10 10 13 6 6 6 13 10 0 3 6 10 6 3 3 3 6 3 3 3 0 6 0 0 3 0 0 0 0 0 0 0 0 0 0 0 0 0
6 6 3 6 10 6 6 6 6 6 6 6 3 3 3 3 6 3 3 0 3 6 3 3 0 0 6 6 0 3 3 3 3 0 0 0 0 0 0 0 0 0 0
10 6 6 6 3 3 3 10 6 6 6 6 3 3 0 3 3 3 6 0 6 3 3 3 3 3 10 6 6 6 0 0 0 0 0 0 0 0 0 0 0 0 0
6 6 6 6 0 0 3 6 6 3 3 3 3 3 3 3 0 0 3 6 6 3 3 3 3 6 6 6 3 6 0 0 0 0 0 0 0 0 0 0 0 0 0
6 6 6 6 0 0 0 3 3 3 3 3 3 3 3 0 0 0 0 3 3 6 6 3 3 3 6 6 3 3 0 0 0 0 0 0 0 0 0 0 0 0 0
3 3 10 6 3 0 0 3 3 3 3 3 3 3 0 0 0 0 0 3 3 3 3 6 6 3 0 0 6 3 0 3 0 0 10 0 0 0 0 0 0 0 0
3 3 6 6 3 0 0 0 3 3 3 3 3 3 0 0 0 0 0 0 0 3 3 6 3 0 0 0 0 0 0 3 0 10 6 6 3 13 0 0 0 0 0
0 3 3 3 3 0 0 0 0 3 6 6 6 3 0 0 0 0 0 0 0 0 0 3 3 3 0 0 0 0 0 0 3 6 10 6 3 3 0 0 0 0 0
0 3 3 3 0 0 0 0 0 0 0 3 3 3 3 0 0 0 0 0 0 0 0 0 0 0 0 3 0 0 0 0 0 0 3 0 3 0 0 0 0 0 0
10 3 3 3 6 0 0 0 0 0 0 0 3 0 0 0 0 0 0 0 0 0 0 0 0 0 0 0 0 0 0 0 0 0 0 0 0 3 0 0 0 0 0
6 3 3 6 3 6 0 0 0 0 0 0 0 3 0 0 0 0 0 0 0 0 0 0 0 0 0 0 0 0 0 3 3 0 0 3 3 3 0 0 0 0 0

GEFSMA_con_cape1000_258.txt.gz
Probability
35 35 39 42 42 39 39 35 29 19 16 16 16 13 13 13 10 13 16 32 32 35 29 29 29 26 29 29 35 39 39 42 42 48 48 45 45 48 48 48 39 32 32
45 48 42 39 35 29 35 32 29 23 26 19 13 13 10 10 13 19 13 23 26 35 32 32 29 29 29 29 29 23 29 32 32 42 39 42 39 45 42 42 45 35 32
35 42 45 45 35 26 29 26 29 29 19 10 13 16 13 13 13 13 16 16 19 19 32 35 32 29 29 26 26 23 23 26 26 29 39 35 39 39 39 45 35 39 32
32 42 39 32 29 29 26 23 26 16 19 13 13 10 6 13 16 16 13 10 13 6 16 29 29 32 29 26 23 19 23 19 23 26 29 32 35 39 39 39 32 29 35
32 35 35 29 32 32 32 16 23 19 13 13 6 10 13 10 10 10 10 13 10 16 6 13 29 26 26 26 19 19 19 19 19 19 26 26 29 26 32 32 26 26 23
29 32 35 32 32 29 26 26 26 26 26 23 6 3 10 13 13 6 3 6 6 6 10 10 13 13 26 29 26 19 19 19 19 16 16 19 26 23 26 26 23 19 23
26 35 26 35 32 26 23 23 23 19 16 16 10 6 13 13 10 3 3 6 10 10 10 13 16 16 16 26 32 23 16 16 19 16 16 19 16 19 19 23 19 19 23
23 16 29 29 29 29 26 23 19 19 13 10 6 3 0 6 3 3 10 10 6 10 10 13 16 19 13 16 6 23 23 19 16 16 16 16 13 13 19 19 23 19 16
19 29 19 26 23 23 23 19 16 13 16 13 10 3 0 0 0 10 10 6 6 6 3 6 6 16 10 6 16 10 19 19 16 16 23 16 13 13 16 16 23 19 13
23 19 19 29 26 19 26 13 16 19 13 13 10 10 6 3 3 3 10 6 10 3 3 3 0 10 10 10 10 6 3 3 13 13 19 16 13 10 13 13 13 13 13
19 16 16 19 29 16 19 16 19 19 16 13 13 6 0 10 6 0 0 0 3 3 6 6 6 3 6 6 10 6 0 0 0 0 0 6 13 10 10 13 13 13 13
26 19 13 29 23 26 23 23 23 19 16 16 10 13 3 0 3 3 0 0 3 3 3 3 6 3 6 3 3 0 0 0 0 0 0 0 0 10 10 13 13 10 13
23 23 16 32 29 26 23 29 26 19 16 13 13 16 13 13 6 6 0 0 0 0 3 3 3 3 3 3 3 0 0 0 0 0 0 0 0 0 3 16 13 10 10
26 23 26 19 23 23 13 29 16 13 19 13 6 16 23 16 10 6 6 3 0 0 0 3 3 3 3 6 3 0 0 0 0 0 0 0 0 0 3 0 3 3 3
13 23 16 23 19 23 19 19 26 16 16 10 13 23 16 13 10 10 6 3 0 0 0 0 0 0 3 6 0 0 3 0 0 0 0 0 0 0 0 0 0 0 0
19 19 19 13 10 10 13 23 26 19 19 13 16 16 3 10 10 13 6 6 0 0 0 0 0 0 0 3 0 0 3 0 0 0 0 0 0 0 0 0 0 0 0
23 23 13 13 13 13 16 19 13 16 10 13 10 10 10 6 6 10 6 3 6 3 0 0 0 0 0 3 0 3 0 0 0 0 0 0 0 0 0 0 0 0 0
26 23 26 13 6 10 16 16 6 10 10 6 10 6 6 3 6 6 6 6 6 0 0 0 0 0 0 0 0 0 0 0 0 0 0 0 0 0 0 0 0 0 0
23 23 19 16 16 13 13 13 13 6 3 3 6 3 3 6 6 3 6 6 6 3 0 0 0 0 0 0 0 0 0 0 0 0 0 0 0 0 0 0 0 0 0
16 23 23 23 16 13 10 6 6 6 0 0 0 3 3 3 3 3 6 3 3 3 3 0 0 0 0 0 0 0 0 0 0 0 0 0 0 0 0 0 0 0 0
6 16 16 13 13 10 0 0 3 0 3 0 0 0 0 0 3 3 0 0 0 3 3 0 0 0 0 0 0 0 0 0 0 0 0 0 0 0 0 0 0 0 0
19 16 13 6 3 0 0 0 0 0 0 0 3 3 0 0 0 0 0 0 0 0 0 0 0 0 0 0 0 0 0 0 0 0 0 0 0 0 0 0 0 0 0
16 16 10 10 6 3 0 0 0 3 3 3 3 3 0 0 0 0 0 0 0 0 0 0 0 0 0 0 3 0 0 0 0 0 0 0 0 0 0 0 0 0 0
26 13 10 13 10 0 0 0 0 0 3 3 3 3 0 0 0 0 0 0 0 0 0 0 0 0 0 0 0 0 0 0 0 0 0 0 0 0 0 0 0 0 0
26 19 16 13 13 6 0 0 0 3 3 3 3 0 3 0 0 0 0 0 0 0 0 0 0 0 0 0 0 0 0 0 0 0 0 0 0 0 0 0 0 0 0
23 13 13 16 13 10 0 0 0 3 3 0 3 0 0 0 0 0 0 0 0 0 0 0 0 0 0 0 0 0 0 0 0 0 0 0 0 0 0 0 0 0 0

GEFSMA_con_cape1000_264.txt.gz
Probability
6 6 6 6 10 10 10 6 3 3 3 0 3 3 3 3 3 3 10 26 35 32 32 29 26 23 29 32 35 26 35 35 42 42 42 42 42 42 39 42 32 32 32
6 3 6 10 6 10 10 3 3 0 0 0 0 0 3 3 3 3 10 16 32 32 35 29 26 26 26 32 32 26 26 39 35 39 42 42 39 39 39 42 35 26 23
10 3 3 6 6 13 13 3 3 0 0 0 0 0 3 6 3 3 6 10 10 16 16 23 26 26 29 29 26 23 26 29 39 35 39 42 42 42 42 39 32 29 16
10 3 6 6 0 6 6 6 0 0 0 0 0 0 0 3 6 3 3 6 3 6 13 16 29 19 26 23 23 23 26 26 32 32 32 39 39 39 35 32 32 32 23
10 6 3 6 3 10 3 3 0 0 0 0 0 0 0 3 3 6 6 3 3 3 6 10 23 29 23 23 26 19 23 19 19 19 23 29 35 35 35 32 29 32 29
13 6 6 3 3 3 3 3 3 0 0 0 0 0 0 0 3 3 3 3 3 3 3 6 10 16 23 26 23 23 19 23 19 19 19 23 29 23 23 23 23 23 26
6 6 6 6 3 3 3 3 3 3 0 0 0 0 0 0 0 0 0 0 0 0 0 0 6 3 6 16 26 23 16 13 19 19 19 19 19 19 19 19 23 19 13
6 6 6 3 3 3 0 0 3 0 0 0 0 0 0 0 0 0 0 0 0 3 3 3 3 3 3 3 10 23 23 19 16 13 16 19 19 19 19 19 19 19 13
6 6 6 6 6 3 3 0 3 0 0 0 0 0 0 0 0 0 0 0 3 3 3 0 0 0 0 0 0 6 16 16 19 13 19 16 16 16 16 16 16 13 19
3 3 3 3 3 3 0 0 0 0 0 0 0 0 0 0 0 0 3 3 3 0 0 0 0 0 0 0 0 0 6 6 10 16 19 19 16 16 16 13 13 13 10
3 3 3 3 0 0 0 0 0 0 0 0 0 0 0 0 0 0 0 0 0 0 0 0 0 0 0 0 0 0 3 3 3 6 6 13 13 16 10 6 6 10 10
0 3 3 0 0 0 0 0 0 0 0 0 0 0 0 0 0 0 0 0 0 0 0 0 0 0 0 0 0 0 0 0 0 3 3 6 6 10 13 10 6 6 13
0 0 0 0 0 0 0 0 0 0 0 0 0 0 0 0 0 0 0 0 0 0 0 0 0 0 0 0 0 0 0 0 0 0 0 0 0 3 3 3 6 6 6
0 0 0 0 0 0 0 0 0 0 0 0 0 0 0 0 0 0 0 0 0 0 0 0 0 0 0 0 0 0 0 0 0 0 0 0 0 0 0 0 0 3 3
0 0 0 0 0 0 0 0 0 0 0 0 0 0 0 0 0 0 0 0 0 0 0 0 0 0 0 0 0 0 0 0 0 0 0 0 0 0 0 0 0 0 0
0 0 0 0 0 0 0 0 0 0 0 0 0 0 0 0 0 0 0 0 0 0 0 0 0 0 0 0 0 0 0 0 0 0 0 0 0 0 0 0 0 0 0
0 0 0 0 0 0 0 0 0 0 0 0 0 0 0 0 0 0 0 0 0 0 0 0 0 0 0 0 0 0 0 0 0 0 0 0 0 0 0 0 0 0 0
0 0 0 0 0 0 0 0 0 0 0 0 0 0 0 0 0 0 0 0 0 0 0 0 0 0 0 0 0 0 0 0 0 0 0 0 0 0 0 0 0 0 0
0 0 0 0 0 0 0 0 0 0 0 0 0 0 0 0 0 0 0 0 0 0 0 0 0 0 0 0 0 0 0 0 0 0 0 0 0 0 0 0 0 0 0
0 0 0 0 0 0 0 0 0 0 0 0 0 0 0 0 0 0 0 0 0 0 0 0 0 0 0 0 0 0 0 0 0 0 0 0 0 0 0 0 0 0 0
0 0 0 0 0 0 0 0 0 0 0 0 0 0 0 0 0 0 0 0 0 0 0 0 0 0 0 0 0 0 0 0 0 0 0 0 0 0 0 0 0 0 0
0 0 0 0 0 0 0 0 0 0 0 0 0 0 0 0 0 0 0 0 0 0 0 0 0 0 0 0 0 0 0 0 0 0 0 0 0 0 0 0 0 0 0
0 0 0 0 0 0 0 0 0 0 0 0 0 0 0 0 0 0 0 0 0 0 0 0 0 0 0 0 0 0 0 0 0 0 0 0 0 0 0 0 0 0 0
0 0 0 0 0 0 0 0 0 0 0 0 0 0 0 0 0 0 0 0 0 0 0 0 0 0 0 0 0 0 0 0 0 0 0 0 0 0 0 0 0 0 0
0 0 0 0 0 0 0 0 0 0 0 0 0 0 0 0 0 0 0 0 0 0 0 0 0 0 0 0 0 0 0 0 0 0 0 0 0 0 0 0 0 0 0
0 0 0 0 0 0 0 0 0 0 0 0 0 0 0 0 0 0 0 0 0 0 0 0 0 0 0 0 0 0 0 0 0 0 0 0 0 0 0 0 0 0 0

GEFSMA_con_cape1000_270.txt.gz
Probability
3 0 3 6 6 6 6 6 3 3 10 6 6 6 6 3 3 6 10 19 23 32 29 19 26 23 23 23 23 29 29 29 29 29 32 26 32 39 35 35 32 35 29
3 0 3 3 3 6 3 6 0 0 0 3 6 10 6 6 3 3 6 10 26 32 29 26 23 19 19 19 16 16 26 29 26 32 32 29 29 32 35 32 32 35 35
3 3 3 3 3 6 6 6 0 0 0 0 6 3 0 3 3 3 3 6 13 29 29 26 26 23 19 16 13 10 16 26 29 29 32 32 32 32 29 23 23 26 19
3 3 3 3 3 3 3 6 0 0 0 0 0 0 0 0 0 3 3 3 3 10 23 26 29 26 26 13 13 16 16 16 23 26 23 35 35 35 26 23 23 29 23
3 3 3 3 0 0 0 6 0 0 0 0 0 0 0 0 0 0 6 6 6 6 10 13 19 23 26 19 16 13 13 16 16 19 19 26 29 29 29 26 26 26 23
6 3 3 3 0 0 0 0 0 0 0 0 0 0 0 0 0 0 0 6 6 6 10 10 13 13 13 26 26 13 13 10 13 10 13 26 26 19 19 13 23 19 19
6 3 3 0 0 0 0 3 0 0 0 0 0 0 0 0 0 0 0 3 3 6 6 6 10 6 6 16 16 19 13 10 13 13 10 13 19 13 16 10 16 19 13
0 3 3 3 0 0 0 0 0 0 0 0 0 0 0 0 0 0 0 0 0 3 6 3 3 6 6 6 6 13 13 13 16 10 10 10 6 6 6 10 10 16 10
3 3 3 3 3 3 3 0 0 0 0 0 0 0 0 0 0 0 0 3 3 3 3 6 0 0 0 3 3 6 10 6 13 10 10 13 10 6 6 10 10 10 10
3 3 3 3 3 3 3 3 0 0 0 0 0 0 0 0 0 0 0 3 0 0 0 0 0 0 0 3 3 0 0 0 3 6 16 16 10 6 10 10 10 10 10
3 3 3 0 0 0 3 3 3 0 0 0 0 0 0 0 0 0 0 0 0 0 0 0 0 0 0 3 3 0 0 0 0 3 3 13 13 10 10 6 13 10 10
0 0 0 0 0 0 0 0 0 0 0 0 0 0 0 0 0 0 0 0 0 0 0 0 0 0 0 0 0 0 0 0 0 0 3 3 3 10 10 10 10 6 10
0 0 0 0 0 0 0 0 0 0 0 0 0 0 0 0 0 0 0 0 0 0 0 0 0 0 0 0 0 0 0 0 0 0 0 0 3 3 6 10 10 13 10
0 0 0 0 0 0 0 0 0 0 0 0 0 0 0 0 0 0 0 0 0 0 0 0 0 0 0 0 0 0 0 0 0 0 0 0 0 0 3 3 3 0 0
0 0 0 0 0 0 0 0 0 0 0 0 0 0 0 0 0 0 0 0 0 0 0 0 0 0 0 0 0 0 0 0 0 0 0 0 0 0 0 0 0 0 0
0 0 0 0 0 0 0 0 0 0 0 0 0 0 0 0 0 0 0 0 0 0 0 0 0 0 0 0 0 0 0 0 0 0 0 0 0 0 0 0 0 0 0
0 0 0 0 0 0 0 0 0 0 0 0 0 0 0 0 0 0 0 0 0 0 0 0 0 0 0 0 0 0 0 0 0 0 0 0 0 0 0 0 0 0 0
0 0 0 0 0 0 0 0 0 0 0 0 0 0 0 0 0 0 0 0 0 0 0 0 0 0 0 0 0 0 0 0 0 0 0 0 0 0 0 0 0 0 0
0 0 0 0 0 0 0 0 0 0 0 0 0 0 0 0 0 0 0 0 0 0 0 0 0 0 0 0 0 0 0 0 0 0 0 0 0 0 0 0 0 0 0
0 0 0 0 0 0 0 0 0 0 0 0 0 0 0 0 0 0 0 0 0 0 0 0 0 0 0 0 0 0 0 0 0 0 0 0 0 0 0 0 0 0 0
0 0 0 0 0 0 0 0 0 0 0 0 0 0 0 0 0 0 0 0 0 0 0 0 0 0 0 0 0 0 0 0 0 0 0 0 0 0 0 0 0 0 0
0 0 0 0 0 0 0 0 0 0 0 0 0 0 0 0 0 0 0 0 0 0 0 0 0 0 0 0 0 0 0 0 0 0 0 0 0 0 0 0 0 0 0
0 0 0 0 0 0 0 0 0 0 0 0 0 0 0 0 0 0 0 0 0 0 0 0 0 0 0 0 0 0 0 0 0 0 0 0 0 0 0 0 0 0 0
0 0 0 0 0 0 0 0 0 0 0 0 0 0 0 0 0 0 0 0 0 0 0 0 0 0 0 0 0 0 0 0 0 0 0 0 0 0 0 0 0 0 0
0 0 0 0 0 0 0 0 0 0 0 0 0 0 0 0 0 0 0 0 0 0 0 0 0 0 0 0 0 0 0 0 0 0 0 0 0 0 0 0 0 0 0
0 0 0 0 0 0 0 0 0 0 0 0 0 0 0 0 0 0 0 0 0 0 0 0 0 0 0 0 0 0 0 0 0 0 0 0 0 0 0 0 0 0 0

GEFSMA_con_cape1000_276.txt.gz
Probability
13 19 29 23 16 16 16 23 26 26 26 26 29 29 23 19 32 26 29 26 26 26 26 23 19 19 23 16 19 26 19 23 19 19 26 29 29 29 29 29 29 23 23
13 23 19 23 26 23 26 16 19 26 26 29 26 23 23 26 19 13 19 16 23 23 26 26 23 26 19 16 16 19 23 16 19 16 23 26 26 32 29 29 26 29 29
19 23 19 23 23 29 26 26 23 19 16 13 16 13 16 19 23 13 13 19 19 16 23 23 23 23 19 16 13 19 19 19 13 13 16 26 26 26 26 26 19 19 26
19 23 16 13 23 23 23 23 23 23 16 10 16 13 16 16 10 16 13 13 13 13 13 19 23 23 19 19 19 13 19 13 13 13 13 19 26 26 26 26 26 23 26
19 23 19 29 19 23 23 23 23 23 23 19 16 16 13 13 10 10 13 10 10 16 10 13 16 16 19 19 19 19 13 13 13 13 13 13 16 29 26 19 23 19 13
19 19 16 23 19 19 19 23 23 26 19 23 6 10 13 10 10 10 6 13 16 19 13 10 16 16 19 19 19 13 10 13 19 10 10 13 13 19 26 16 19 10 10
23 23 10 23 19 19 19 16 19 19 26 19 13 13 10 10 13 19 10 6 13 13 13 13 13 13 16 16 16 13 13 13 10 10 10 10 13 10 3 10 10 13 16
23 13 23 16 19 19 19 19 19 16 10 16 6 6 3 6 16 0 10 13 10 13 10 10 16 16 19 19 10 10 16 16 16 13 10 13 10 10 6 10 6 6 6
16 19 19 19 19 19 16 23 16 16 10 10 10 6 3 3 3 0 3 0 6 13 10 10 13 16 16 16 16 3 6 10 13 13 16 10 13 10 6 3 3 3 6
13 19 19 19 19 16 19 13 13 16 16 10 10 10 13 3 0 6 3 3 3 6 3 3 3 10 16 16 13 6 3 3 6 10 10 13 10 6 3 3 3 3 3
16 10 10 16 16 16 10 13 13 16 10 10 10 10 10 10 10 6 6 6 6 3 3 6 6 10 10 16 16 10 3 0 3 3 6 6 6 6 10 3 0 0 0
16 16 6 16 13 13 13 16 16 13 16 16 13 10 6 6 3 3 6 0 3 0 0 6 6 3 6 10 6 3 0 0 0 0 3 3 3 6 6 6 6 6 6
16 19 13 19 13 13 13 19 19 13 13 16 19 16 10 6 6 10 3 0 0 0 3 0 0 3 0 3 10 0 0 0 0 0 0 0 0 3 3 6 6 6 10
16 19 19 19 10 13 10 16 16 16 16 16 13 13 16 13 13 10 3 3 3 3 3 3 0 0 0 0 0 0 3 0 0 0 0 0 0 0 0 3 3 0 0
23 19 16 16 16 13 10 10 13 13 16 16 13 13 16 6 10 10 6 6 3 0 3 3 3 0 0 3 3 3 10 0 0 0 0 0 0 0 0 0 0 0 0
26 23 16 16 16 13 13 13 13 13 16 16 13 10 10 10 10 10 10 6 3 3 0 0 6 0 3 0 3 3 6 0 0 0 0 0 0 0 0 0 0 0 0
26 19 19 16 16 16 13 16 6 13 13 10 10 10 13 10 6 3 3 6 3 6 3 3 3 3 6 6 6 6 6 10 3 0 0 0 0 0 0 0 0 0 0
26 19 19 19 16 16 16 16 16 10 13 13 10 13 10 10 10 3 6 3 3 6 3 3 6 3 6 6 6 6 6 3 3 0 0 0 0 0 0 0 0 0 0
19 16 16 19 19 16 16 13 10 10 13 10 6 3 6 13 10 6 6 3 3 3 3 6 3 10 3 3 3 3 3 13 0 0 0 0 0 0 0 0 0 0 0
19 19 19 16 19 19 13 6 10 6 10 10 10 13 10 6 6 10 6 6 3 3 6 10 6 3 6 3 3 3 3 3 3 0 0 0 0 0 0 0 0 0 0
6 10 13 13 16 10 6 6 6 6 10 10 10 6 10 3 3 3 0 3 6 13 6 6 6 6 6 3 3 0 0 0 6 6 3 0 0 0 0 0 0 0 0
6 13 10 10 10 3 3 0 3 6 6 6 10 10 10 0 0 0 0 0 0 6 6 3 6 6 6 3 3 0 3 10 3 6 10 3 0 3 3 0 0 0 0
10 10 10 6 3 3 0 0 0 3 6 6 10 10 6 0 0 6 0 0 0 0 0 6 0 3 3 3 6 3 6 6 10 10 10 3 3 3 3 0 0 0 0
13 13 10 10 10 0 0 0 0 3 6 6 6 6 10 10 0 3 0 3 3 0 0 0 0 0 0 3 10 6 10 6 10 10 6 6 6 6 0 0 0 0 0
13 10 10 13 10 3 0 0 0 3 3 6 6 3 3 6 0 0 0 3 3 0 0 0 0 0 0 0 0 3 3 6 3 6 10 10 3 6 3 6 0 0 0
13 6 10 10 13 6 0 0 0 3 0 0 3 3 0 0 0 0 0 3 3 0 0 0 0 0 0 0 0 3 3 3 6 6 6 6 6 6 3 3 3 0 0